QPF
0.02 0.02 0.02 0.02 0.02 0.01 0.01 0.01 0.00 0.00 0.00 0.00 0.00 0.00 0.00 0.00 0.01 0.01 0.01 0.01 0.01 0.00 0.00 0.00 0.00 0.01 0.01 0.01 0.01 0.02 0.03 0.05 0.05 0.05 0.06 0.07 0.08 0.07 0.06 0.07 0.08 0.08 0.08
0.02 0.02 0.03 0.03 0.02 0.01 0.01 0.00 0.00 0.00 0.00 0.00 0.00 0.00 0.00 0.00 0.00 0.01 0.01 0.01 0.01 0.01 0.00 0.01 0.01 0.01 0.01 0.01 0.02 0.02 0.03 0.04 0.05 0.05 0.07 0.08 0.08 0.07 0.06 0.06 0.07 0.07 0.06
0.03 0.03 0.03 0.02 0.02 0.01 0.01 0.00 0.01 0.01 0.01 0.01 0.01 0.01 0.01 0.00 0.00 0.01 0.01 0.01 0.01 0.01 0.01 0.01 0.01 0.01 0.01 0.02 0.02 0.03 0.04 0.04 0.04 0.05 0.06 0.07 0.07 0.05 0.05 0.06 0.06 0.05 0.05
0.02 0.03 0.03 0.03 0.03 0.02 0.01 0.01 0.01 0.01 0.01 0.02 0.02 0.02 0.01 0.01 0.01 0.01 0.01 0.02 0.02 0.02 0.01 0.01 0.01 0.02 0.02 0.02 0.03 0.03 0.04 0.04 0.05 0.05 0.05 0.05 0.06 0.05 0.04 0.05 0.06 0.05 0.05
0.02 0.02 0.02 0.03 0.03 0.03 0.02 0.02 0.02 0.01 0.01 0.01 0.01 0.02 0.01 0.02 0.01 0.01 0.02 0.02 0.02 0.02 0.02 0.02 0.02 0.03 0.03 0.03 0.03 0.04 0.05 0.05 0.05 0.05 0.05 0.05 0.05 0.05 0.04 0.04 0.05 0.05 0.05
0.02 0.02 0.02 0.03 0.03 0.03 0.02 0.02 0.01 0.01 0.01 0.01 0.01 0.02 0.02 0.01 0.02 0.02 0.02 0.02 0.02 0.02 0.03 0.03 0.03 0.03 0.03 0.03 0.05 0.05 0.05 0.05 0.05 0.05 0.05 0.05 0.05 0.04 0.04 0.04 0.04 0.05 0.05
0.02 0.02 0.02 0.02 0.02 0.02 0.02 0.01 0.01 0.01 0.01 0.01 0.02 0.02 0.02 0.02 0.03 0.03 0.03 0.03 0.03 0.03 0.02 0.02 0.02 0.02 0.02 0.03 0.04 0.05 0.05 0.05 0.05 0.06 0.06 0.05 0.04 0.04 0.04 0.04 0.04 0.04 0.04
0.02 0.02 0.02 0.02 0.02 0.02 0.01 0.01 0.01 0.01 0.01 0.02 0.02 0.02 0.03 0.03 0.03 0.03 0.03 0.03 0.03 0.03 0.02 0.02 0.02 0.02 0.02 0.02 0.03 0.04 0.04 0.04 0.04 0.05 0.05 0.04 0.05 0.05 0.04 0.04 0.04 0.04 0.03
0.02 0.02 0.02 0.02 0.02 0.02 0.02 0.01 0.01 0.01 0.01 0.01 0.01 0.01 0.02 0.02 0.03 0.04 0.04 0.03 0.03 0.02 0.02 0.02 0.02 0.02 0.03 0.03 0.04 0.04 0.03 0.04 0.05 0.05 0.05 0.05 0.06 0.06 0.05 0.05 0.05 0.04 0.04
0.02 0.02 0.02 0.02 0.01 0.01 0.02 0.01 0.01 0.01 0.01 0.01 0.01 0.01 0.02 0.02 0.03 0.03 0.03 0.03 0.02 0.02 0.02 0.02 0.02 0.02 0.02 0.03 0.04 0.03 0.02 0.02 0.03 0.03 0.03 0.02 0.03 0.03 0.04 0.04 0.05 0.05 0.05
0.01 0.01 0.02 0.02 0.01 0.02 0.02 0.02 0.01 0.01 0.01 0.01 0.01 0.01 0.02 0.02 0.02 0.02 0.02 0.02 0.02 0.01 0.01 0.01 0.01 0.02 0.02 0.03 0.03 0.03 0.02 0.02 0.02 0.03 0.03 0.02 0.02 0.02 0.02 0.02 0.02 0.03 0.03
0.01 0.01 0.02 0.02 0.02 0.01 0.02 0.02 0.02 0.02 0.02 0.02 0.02 0.02 0.02 0.02 0.02 0.01 0.01 0.02 0.02 0.02 0.01 0.01 0.01 0.02 0.02 0.02 0.02 0.02 0.02 0.02 0.02 0.02 0.02 0.02 0.01 0.01 0.01 0.01 0.02 0.02 0.02
0.01 0.01 0.01 0.02 0.01 0.01 0.01 0.02 0.01 0.01 0.02 0.02 0.02 0.02 0.02 0.02 0.02 0.02 0.01 0.01 0.01 0.01 0.01 0.01 0.01 0.02 0.02 0.01 0.01 0.01 0.01 0.01 0.01 0.01 0.01 0.01 0.01 0.01 0.01 0.01 0.02 0.02 0.02
0.01 0.01 0.01 0.01 0.01 0.01 0.01 0.01 0.01 0.01 0.01 0.01 0.01 0.01 0.01 0.02 0.02 0.02 0.02 0.02 0.01 0.01 0.01 0.01 0.01 0.01 0.01 0.01 0.01 0.01 0.01 0.01 0.01 0.01 0.01 0.01 0.01 0.01 0.02 0.02 0.02 0.02 0.03
0.01 0.01 0.01 0.01 0.01 0.01 0.01 0.01 0.01 0.01 0.01 0.02 0.02 0.02 0.02 0.01 0.01 0.02 0.03 0.02 0.02 0.02 0.02 0.02 0.01 0.01 0.01 0.01 0.01 0.01 0.01 0.01 0.01 0.01 0.01 0.01 0.02 0.02 0.02 0.02 0.03 0.03 0.03
0.01 0.01 0.01 0.01 0.01 0.01 0.01 0.01 0.01 0.01 0.02 0.02 0.02 0.02 0.02 0.02 0.03 0.03 0.03 0.03 0.03 0.03 0.03 0.02 0.01 0.01 0.01 0.01 0.01 0.01 0.02 0.02 0.02 0.02 0.02 0.02 0.02 0.02 0.02 0.03 0.03 0.03 0.03
0.01 0.01 0.01 0.01 0.01 0.01 0.01 0.01 0.01 0.01 0.01 0.02 0.02 0.02 0.02 0.03 0.03 0.03 0.03 0.03 0.03 0.03 0.03 0.02 0.01 0.01 0.01 0.01 0.02 0.02 0.01 0.01 0.02 0.02 0.02 0.02 0.02 0.02 0.02 0.02 0.03 0.03 0.03
0.01 0.01 0.01 0.02 0.02 0.02 0.01 0.01 0.01 0.01 0.01 0.01 0.01 0.02 0.02 0.02 0.03 0.03 0.03 0.03 0.03 0.02 0.02 0.01 0.01 0.01 0.01 0.01 0.02 0.02 0.01 0.02 0.02 0.02 0.02 0.02 0.02 0.02 0.02 0.02 0.02 0.03 0.04
0.02 0.02 0.01 0.02 0.02 0.01 0.01 0.01 0.01 0.01 0.01 0.01 0.01 0.01 0.02 0.02 0.03 0.03 0.03 0.02 0.01 0.01 0.01 0.01 0.01 0.01 0.01 0.01 0.01 0.02 0.02 0.02 0.02 0.02 0.02 0.02 0.02 0.02 0.02 0.02 0.02 0.02 0.03
0.02 0.02 0.02 0.02 0.02 0.01 0.01 0.01 0.01 0.01 0.01 0.01 0.01 0.01 0.02 0.02 0.02 0.02 0.02 0.01 0.01 0.01 0.01 0.01 0.01 0.01 0.01 0.01 0.02 0.02 0.02 0.02 0.02 0.02 0.02 0.02 0.02 0.02 0.02 0.02 0.02 0.02 0.02
0.02 0.02 0.02 0.02 0.01 0.01 0.01 0.01 0.01 0.01 0.01 0.01 0.01 0.01 0.01 0.02 0.01 0.01 0.01 0.01 0.01 0.01 0.01 0.01 0.01 0.01 0.01 0.01 0.01 0.02 0.02 0.01 0.01 0.02 0.02 0.02 0.02 0.02 0.02 0.02 0.02 0.02 0.02
0.02 0.02 0.02 0.01 0.01 0.01 0.01 0.01 0.01 0.01 0.01 0.01 0.01 0.01 0.01 0.01 0.01 0.01 0.01 0.01 0.01 0.01 0.01 0.01 0.01 0.01 0.01 0.01 0.02 0.02 0.02 0.01 0.01 0.01 0.02 0.01 0.01 0.01 0.02 0.02 0.02 0.02 0.02
0.02 0.02 0.02 0.02 0.01 0.01 0.01 0.01 0.01 0.02 0.02 0.01 0.01 0.01 0.01 0.01 0.01 0.01 0.01 0.01 0.01 0.01 0.01 0.01 0.01 0.01 0.01 0.01 0.01 0.02 0.02 0.02 0.02 0.02 0.02 0.02 0.01 0.01 0.01 0.01 0.01 0.02 0.02
0.02 0.02 0.02 0.01 0.02 0.02 0.01 0.01 0.01 0.01 0.02 0.02 0.01 0.01 0.01 0.01 0.01 0.01 0.01 0.01 0.00 0.00 0.00 0.00 0.01 0.01 0.01 0.01 0.01 0.01 0.01 0.02 0.02 0.02 0.02 0.02 0.02 0.02 0.02 0.02 0.01 0.01 0.01
0.02 0.01 0.01 0.01 0.01 0.01 0.01 0.01 0.01 0.01 0.01 0.01 0.01 0.01 0.01 0.01 0.01 0.01 0.01 0.01 0.00 0.00 0.00 0.00 0.00 0.01 0.01 0.01 0.01 0.01 0.01 0.01 0.02 0.02 0.03 0.03 0.02 0.02 0.02 0.02 0.01 0.01 0.02
0.01 0.01 0.01 0.01 0.01 0.01 0.01 0.01 0.01 0.01 0.01 0.01 0.01 0.01 0.01 0.01 0.01 0.01 0.01 0.00 0.00 0.00 0.00 0.00 0.00 0.00 0.00 0.00 0.01 0.01 0.01 0.01 0.02 0.02 0.03 0.03 0.02 0.02 0.01 0.01 0.01 0.02 0.02
MSLP
1026.65 1026.13 1025.65 1025.24 1024.94 1024.74 1024.62 1024.55 1024.49 1024.40 1024.26 1024.06 1023.80 1023.51 1023.21 1022.93 1022.68 1022.46 1022.28 1022.12 1021.95 1021.77 1021.58 1021.36 1021.12 1020.88 1020.64 1020.40 1020.13 1019.82 1019.44 1018.95 1018.36 1017.65 1016.85 1015.98 1015.09 1014.22 1013.40 1012.62 1011.86 1011.08 1010.19
1027.17 1026.53 1025.94 1025.44 1025.06 1024.80 1024.63 1024.53 1024.45 1024.36 1024.24 1024.05 1023.82 1023.54 1023.25 1022.95 1022.66 1022.39 1022.12 1021.85 1021.58 1021.30 1021.00 1020.71 1020.44 1020.18 1019.95 1019.75 1019.54 1019.30 1018.99 1018.58 1018.05 1017.40 1016.64 1015.80 1014.93 1014.07 1013.24 1012.45 1011.65 1010.80 1009.82
1027.40 1026.68 1026.02 1025.48 1025.06 1024.76 1024.58 1024.46 1024.38 1024.29 1024.16 1023.99 1023.77 1023.51 1023.22 1022.91 1022.59 1022.27 1021.93 1021.59 1021.23 1020.85 1020.48 1020.12 1019.80 1019.53 1019.32 1019.14 1018.99 1018.81 1018.57 1018.23 1017.76 1017.16 1016.43 1015.62 1014.77 1013.91 1013.07 1012.26 1011.44 1010.55 1009.52
1027.45 1026.69 1026.01 1025.45 1025.03 1024.73 1024.54 1024.41 1024.30 1024.20 1024.06 1023.88 1023.64 1023.38 1023.08 1022.76 1022.42 1022.07 1021.69 1021.29 1020.87 1020.44 1020.00 1019.60 1019.25 1018.96 1018.75 1018.60 1018.48 1018.35 1018.16 1017.87 1017.44 1016.88 1016.18 1015.39 1014.54 1013.69 1012.85 1012.04 1011.22 1010.33 1009.30
1027.44 1026.67 1026.00 1025.47 1025.06 1024.77 1024.57 1024.41 1024.28 1024.12 1023.94 1023.71 1023.44 1023.14 1022.82 1022.49 1022.14 1021.77 1021.38 1020.95 1020.50 1020.04 1019.57 1019.14 1018.77 1018.47 1018.26 1018.12 1018.01 1017.91 1017.74 1017.48 1017.09 1016.55 1015.87 1015.09 1014.26 1013.41 1012.59 1011.79 1011.00 1010.16 1009.19
1027.46 1026.72 1026.10 1025.60 1025.22 1024.94 1024.72 1024.52 1024.32 1024.09 1023.83 1023.52 1023.19 1022.84 1022.48 1022.12 1021.76 1021.39 1021.00 1020.58 1020.13 1019.66 1019.19 1018.76 1018.37 1018.06 1017.84 1017.69 1017.59 1017.48 1017.33 1017.08 1016.69 1016.17 1015.51 1014.75 1013.93 1013.11 1012.32 1011.56 1010.83 1010.07 1009.20
1027.58 1026.89 1026.32 1025.87 1025.52 1025.24 1024.99 1024.74 1024.46 1024.13 1023.76 1023.36 1022.94 1022.51 1022.11 1021.72 1021.34 1020.98 1020.60 1020.20 1019.77 1019.32 1018.87 1018.44 1018.06 1017.74 1017.50 1017.33 1017.21 1017.09 1016.92 1016.67 1016.30 1015.78 1015.15 1014.41 1013.63 1012.84 1012.09 1011.40 1010.74 1010.09 1009.36
1027.80 1027.17 1026.66 1026.26 1025.93 1025.64 1025.35 1025.04 1024.67 1024.24 1023.76 1023.25 1022.73 1022.23 1021.76 1021.33 1020.95 1020.59 1020.23 1019.86 1019.47 1019.06 1018.64 1018.22 1017.84 1017.51 1017.25 1017.06 1016.90 1016.76 1016.57 1016.31 1015.94 1015.45 1014.84 1014.14 1013.40 1012.67 1011.98 1011.36 1010.80 1010.25 1009.67
1028.08 1027.51 1027.05 1026.68 1026.37 1026.07 1025.75 1025.37 1024.92 1024.40 1023.82 1023.21 1022.60 1022.02 1021.50 1021.04 1020.64 1020.29 1019.96 1019.62 1019.27 1018.89 1018.50 1018.10 1017.73 1017.40 1017.11 1016.88 1016.69 1016.51 1016.30 1016.04 1015.68 1015.21 1014.64 1014.00 1013.33 1012.66 1012.04 1011.49 1011.01 1010.57 1010.12
1028.36 1027.85 1027.43 1027.08 1026.77 1026.45 1026.10 1025.67 1025.16 1024.57 1023.92 1023.24 1022.57 1021.94 1021.37 1020.89 1020.47 1020.12 1019.80 1019.50 1019.18 1018.84 1018.48 1018.11 1017.74 1017.40 1017.09 1016.84 1016.61 1016.39 1016.17 1015.89 1015.55 1015.12 1014.61 1014.04 1013.43 1012.84 1012.29 1011.81 1011.39 1011.03 1010.68
1028.63 1028.13 1027.72 1027.37 1027.06 1026.73 1026.35 1025.90 1025.36 1024.73 1024.05 1023.33 1022.63 1021.97 1021.38 1020.87 1020.45 1020.10 1019.80 1019.51 1019.23 1018.92 1018.59 1018.24 1017.88 1017.53 1017.21 1016.93 1016.67 1016.43 1016.18 1015.90 1015.58 1015.19 1014.74 1014.24 1013.72 1013.20 1012.72 1012.30 1011.93 1011.62 1011.33
1028.85 1028.34 1027.92 1027.55 1027.21 1026.87 1026.48 1026.02 1025.48 1024.86 1024.18 1023.47 1022.76 1022.10 1021.50 1020.99 1020.57 1020.22 1019.92 1019.65 1019.39 1019.11 1018.81 1018.48 1018.14 1017.80 1017.47 1017.16 1016.88 1016.61 1016.35 1016.08 1015.77 1015.43 1015.04 1014.61 1014.17 1013.73 1013.31 1012.93 1012.60 1012.32 1012.06
1029.04 1028.50 1028.03 1027.63 1027.27 1026.90 1026.51 1026.06 1025.55 1024.96 1024.32 1023.64 1022.96 1022.32 1021.73 1021.22 1020.79 1020.44 1020.15 1019.89 1019.65 1019.40 1019.13 1018.84 1018.52 1018.20 1017.87 1017.55 1017.25 1016.96 1016.68 1016.41 1016.12 1015.81 1015.48 1015.12 1014.75 1014.38 1014.02 1013.68 1013.38 1013.11 1012.86
1029.25 1028.65 1028.13 1027.68 1027.28 1026.90 1026.51 1026.08 1025.60 1025.07 1024.48 1023.85 1023.22 1022.61 1022.04 1021.54 1021.11 1020.76 1020.46 1020.22 1020.00 1019.78 1019.54 1019.28 1019.00 1018.70 1018.39 1018.07 1017.76 1017.46 1017.17 1016.89 1016.61 1016.33 1016.04 1015.74 1015.44 1015.13 1014.82 1014.52 1014.24 1013.98 1013.72
1029.52 1028.86 1028.28 1027.78 1027.34 1026.94 1026.55 1026.15 1025.72 1025.24 1024.71 1024.14 1023.56 1022.98 1022.43 1021.94 1021.51 1021.15 1020.85 1020.62 1020.41 1020.22 1020.03 1019.81 1019.57 1019.31 1019.02 1018.71 1018.40 1018.09 1017.79 1017.50 1017.22 1016.96 1016.70 1016.45 1016.20 1015.95 1015.70 1015.44 1015.19 1014.93 1014.67
1029.88 1029.18 1028.56 1028.01 1027.54 1027.12 1026.74 1026.36 1025.97 1025.54 1025.06 1024.55 1024.01 1023.46 1022.92 1022.43 1022.00 1021.63 1021.33 1021.09 1020.90 1020.74 1020.59 1020.42 1020.23 1020.01 1019.75 1019.47 1019.16 1018.84 1018.53 1018.23 1017.95 1017.69 1017.46 1017.24 1017.04 1016.84 1016.63 1016.42 1016.20 1015.96 1015.71
1030.36 1029.64 1028.99 1028.41 1027.92 1027.50 1027.12 1026.76 1026.40 1026.01 1025.58 1025.11 1024.60 1024.07 1023.54 1023.04 1022.59 1022.21 1021.90 1021.66 1021.48 1021.35 1021.23 1021.11 1020.97 1020.79 1020.57 1020.31 1020.01 1019.69 1019.37 1019.06 1018.77 1018.51 1018.28 1018.09 1017.92 1017.77 1017.62 1017.45 1017.27 1017.05 1016.81
1030.93 1030.22 1029.57 1029.00 1028.51 1028.08 1027.72 1027.37 1027.04 1026.67 1026.27 1025.83 1025.33 1024.81 1024.29 1023.78 1023.31 1022.91 1022.58 1022.34 1022.17 1022.05 1021.96 1021.88 1021.77 1021.64 1021.45 1021.21 1020.92 1020.61 1020.28 1019.95 1019.65 1019.39 1019.17 1018.99 1018.85 1018.73 1018.62 1018.50 1018.35 1018.17 1017.94
1031.58 1030.91 1030.29 1029.74 1029.26 1028.85 1028.49 1028.17 1027.84 1027.50 1027.12 1026.68 1026.20 1025.69 1025.16 1024.63 1024.15 1023.73 1023.38 1023.12 1022.94 1022.82 1022.75 1022.69 1022.61 1022.50 1022.34 1022.12 1021.85 1021.54 1021.21 1020.88 1020.57 1020.30 1020.08 1019.91 1019.79 1019.69 1019.61 1019.52 1019.41 1019.25 1019.05
1032.26 1031.66 1031.09 1030.57 1030.12 1029.73 1029.38 1029.07 1028.75 1028.42 1028.04 1027.62 1027.15 1026.64 1026.10 1025.57 1025.07 1024.62 1024.25 1023.97 1023.78 1023.65 1023.57 1023.51 1023.45 1023.35 1023.20 1023.00 1022.74 1022.43 1022.10 1021.76 1021.45 1021.18 1020.96 1020.79 1020.68 1020.60 1020.54 1020.47 1020.38 1020.24 1020.06
1032.94 1032.41 1031.90 1031.43 1031.00 1030.63 1030.29 1029.97 1029.66 1029.33 1028.97 1028.55 1028.08 1027.58 1027.04 1026.51 1026.00 1025.53 1025.14 1024.84 1024.61 1024.46 1024.36 1024.28 1024.21 1024.11 1023.96 1023.77 1023.51 1023.21 1022.89 1022.56 1022.25 1021.97 1021.75 1021.59 1021.47 1021.40 1021.34 1021.28 1021.20 1021.08 1020.91
1033.59 1033.13 1032.67 1032.23 1031.82 1031.45 1031.12 1030.79 1030.48 1030.15 1029.78 1029.37 1028.92 1028.42 1027.89 1027.36 1026.85 1026.38 1025.97 1025.63 1025.37 1025.18 1025.04 1024.94 1024.84 1024.72 1024.56 1024.36 1024.11 1023.82 1023.51 1023.19 1022.89 1022.62 1022.40 1022.23 1022.12 1022.04 1021.98 1021.91 1021.84 1021.72 1021.56
1034.18 1033.76 1033.33 1032.91 1032.51 1032.13 1031.77 1031.44 1031.10 1030.76 1030.40 1030.00 1029.55 1029.07 1028.56 1028.04 1027.54 1027.06 1026.63 1026.26 1025.97 1025.73 1025.55 1025.40 1025.26 1025.11 1024.93 1024.72 1024.48 1024.20 1023.90 1023.60 1023.32 1023.06 1022.85 1022.69 1022.57 1022.49 1022.42 1022.35 1022.27 1022.16 1022.01
1034.68 1034.28 1033.86 1033.43 1033.01 1032.61 1032.22 1031.85 1031.50 1031.14 1030.77 1030.37 1029.94 1029.48 1028.99 1028.49 1027.99 1027.51 1027.07 1026.68 1026.34 1026.06 1025.82 1025.62 1025.43 1025.24 1025.04 1024.82 1024.58 1024.31 1024.03 1023.76 1023.50 1023.28 1023.09 1022.94 1022.83 1022.74 1022.68 1022.61 1022.53 1022.42 1022.29
1035.06 1034.66 1034.22 1033.77 1033.32 1032.88 1032.45 1032.05 1031.66 1031.28 1030.89 1030.49 1030.07 1029.62 1029.15 1028.67 1028.18 1027.70 1027.24 1026.82 1026.45 1026.12 1025.83 1025.57 1025.34 1025.11 1024.88 1024.65 1024.41 1024.16 1023.91 1023.67 1023.45 1023.25 1023.10 1022.98 1022.89 1022.82 1022.77 1022.72 1022.65 1022.56 1022.46
1035.29 1034.87 1034.42 1033.93 1033.44 1032.96 1032.49 1032.04 1031.62 1031.21 1030.80 1030.40 1029.98 1029.54 1029.07 1028.60 1028.11 1027.62 1027.15 1026.70 1026.29 1025.91 1025.57 1025.26 1024.98 1024.72 1024.47 1024.22 1023.98 1023.75 1023.53 1023.33 1023.15 1023.01 1022.90 1022.82 1022.77 1022.74 1022.72 1022.70 1022.67 1022.63 1022.56
Thickness
5422 5420 5419 5417 5415 5413 5410 5408 5406 5404 5401 5399 5396 5394 5392 5389 5387 5385 5384 5382 5380 5379 5378 5377 5377 5376 5376 5376 5376 5377 5376 5376 5379 5385 5385 5387 5388 5390 5393 5395 5398 5400 5401
5410 5407 5406 5404 5402 5400 5397 5395 5393 5391 5389 5386 5384 5381 5379 5377 5375 5373 5371 5370 5368 5367 5365 5364 5364 5363 5363 5363 5362 5363 5363 5362 5363 5368 5371 5371 5373 5374 5377 5379 5382 5384 5386
5396 5394 5392 5391 5389 5386 5384 5382 5380 5378 5376 5373 5371 5369 5367 5365 5363 5361 5359 5358 5356 5354 5353 5352 5351 5351 5351 5350 5349 5349 5349 5350 5350 5352 5356 5357 5358 5360 5361 5364 5366 5369 5370
5382 5381 5379 5377 5375 5373 5371 5369 5367 5365 5363 5361 5359 5357 5355 5353 5351 5350 5348 5346 5344 5343 5341 5341 5340 5339 5339 5338 5337 5337 5336 5336 5336 5337 5340 5343 5344 5346 5346 5348 5350 5352 5355
5368 5366 5365 5364 5362 5360 5358 5356 5354 5353 5351 5349 5348 5345 5344 5342 5341 5339 5337 5335 5333 5332 5331 5330 5329 5328 5328 5327 5327 5326 5325 5324 5323 5324 5326 5328 5330 5331 5332 5333 5335 5337 5340
5354 5352 5351 5350 5348 5347 5345 5343 5341 5340 5339 5337 5336 5334 5332 5332 5331 5330 5328 5325 5323 5322 5320 5319 5318 5317 5317 5316 5316 5315 5315 5313 5312 5312 5313 5314 5316 5316 5317 5318 5319 5322 5326
5340 5339 5338 5337 5335 5334 5333 5331 5329 5328 5327 5325 5324 5322 5321 5320 5320 5319 5318 5315 5313 5311 5310 5308 5308 5307 5305 5304 5304 5304 5303 5303 5303 5302 5302 5303 5303 5303 5303 5304 5305 5307 5310
5327 5326 5325 5324 5323 5322 5320 5319 5317 5317 5316 5314 5313 5311 5310 5310 5309 5309 5308 5305 5303 5301 5299 5298 5296 5295 5294 5293 5293 5292 5292 5291 5291 5291 5292 5292 5291 5291 5291 5291 5292 5294 5297
5315 5314 5313 5312 5311 5310 5309 5307 5306 5305 5304 5303 5302 5301 5299 5299 5299 5299 5298 5294 5293 5291 5289 5288 5287 5286 5285 5284 5283 5282 5282 5281 5280 5280 5281 5281 5280 5280 5280 5280 5280 5281 5284
5303 5302 5301 5300 5300 5299 5298 5296 5295 5294 5293 5292 5291 5290 5289 5289 5289 5290 5288 5285 5283 5281 5280 5278 5277 5277 5276 5276 5274 5272 5271 5271 5270 5270 5270 5269 5269 5269 5269 5268 5268 5269 5271
5291 5290 5289 5289 5288 5288 5287 5285 5283 5283 5282 5281 5280 5280 5279 5279 5279 5279 5278 5276 5273 5272 5271 5269 5268 5268 5268 5267 5266 5264 5263 5262 5261 5260 5259 5259 5258 5258 5258 5257 5257 5257 5258
5280 5280 5279 5278 5278 5277 5276 5274 5273 5272 5271 5271 5270 5269 5269 5269 5269 5269 5269 5267 5265 5263 5262 5261 5259 5259 5259 5259 5257 5256 5255 5253 5251 5250 5249 5249 5249 5248 5248 5247 5247 5247 5248
5269 5269 5268 5267 5267 5267 5265 5264 5263 5262 5262 5262 5261 5261 5260 5259 5258 5259 5259 5258 5256 5255 5253 5252 5251 5251 5250 5249 5248 5247 5246 5243 5242 5241 5241 5240 5239 5239 5238 5238 5239 5239 5240
5258 5258 5257 5257 5257 5257 5256 5256 5255 5254 5253 5253 5253 5252 5251 5250 5249 5249 5248 5247 5246 5245 5244 5243 5243 5242 5241 5240 5239 5237 5236 5235 5234 5233 5232 5231 5230 5230 5229 5229 5230 5230 5231
5247 5247 5247 5247 5246 5246 5247 5247 5247 5247 5246 5246 5245 5244 5243 5242 5242 5242 5240 5239 5238 5237 5236 5234 5233 5232 5231 5230 5229 5228 5227 5226 5225 5224 5223 5222 5222 5221 5221 5221 5221 5221 5221
5237 5237 5236 5236 5237 5237 5237 5237 5238 5238 5239 5239 5238 5238 5237 5236 5236 5235 5234 5233 5232 5230 5228 5226 5224 5223 5222 5221 5220 5220 5219 5218 5217 5216 5215 5214 5214 5213 5213 5213 5212 5212 5212
5227 5227 5227 5227 5227 5227 5228 5228 5228 5229 5229 5229 5229 5229 5229 5229 5228 5227 5226 5225 5224 5223 5219 5217 5216 5214 5213 5212 5211 5211 5210 5209 5208 5207 5207 5206 5205 5205 5205 5204 5204 5203 5204
5218 5218 5218 5218 5218 5218 5218 5218 5218 5219 5219 5219 5219 5220 5220 5220 5219 5219 5218 5216 5214 5212 5211 5209 5207 5206 5205 5204 5203 5202 5201 5200 5200 5199 5198 5197 5197 5196 5196 5196 5195 5195 5195
5210 5210 5210 5209 5210 5210 5210 5210 5210 5210 5210 5210 5209 5210 5210 5210 5210 5210 5208 5206 5204 5203 5201 5200 5199 5198 5197 5196 5195 5194 5193 5192 5192 5191 5191 5190 5189 5189 5188 5188 5187 5188 5187
5202 5203 5203 5202 5202 5202 5203 5202 5202 5202 5201 5201 5201 5201 5201 5201 5200 5199 5198 5196 5195 5193 5192 5191 5190 5190 5189 5187 5187 5186 5185 5185 5184 5184 5183 5183 5182 5182 5181 5180 5179 5178 5178
5194 5195 5196 5196 5196 5195 5195 5195 5195 5194 5193 5193 5193 5193 5195 5193 5192 5190 5189 5188 5187 5185 5184 5184 5183 5182 5181 5180 5179 5179 5178 5177 5177 5177 5176 5176 5175 5175 5174 5173 5172 5171 5171
5186 5187 5188 5189 5189 5189 5188 5188 5187 5187 5186 5185 5185 5185 5186 5185 5183 5182 5181 5180 5179 5178 5177 5177 5176 5175 5175 5174 5173 5172 5171 5170 5170 5170 5169 5169 5168 5167 5167 5166 5164 5163 5163
5178 5179 5181 5181 5182 5182 5182 5181 5180 5179 5178 5178 5177 5177 5176 5176 5174 5174 5173 5172 5171 5170 5170 5169 5169 5168 5168 5167 5166 5165 5164 5164 5164 5164 5163 5162 5161 5161 5160 5159 5158 5157 5156
5170 5171 5172 5173 5173 5173 5173 5173 5172 5171 5171 5170 5169 5168 5168 5167 5166 5166 5165 5164 5164 5163 5163 5162 5162 5162 5161 5160 5160 5159 5159 5159 5159 5158 5157 5157 5156 5155 5155 5153 5152 5151 5150
5161 5161 5162 5163 5163 5164 5164 5164 5163 5163 5162 5161 5160 5160 5159 5158 5158 5158 5157 5157 5156 5156 5156 5156 5156 5156 5156 5155 5155 5154 5154 5155 5155 5154 5154 5153 5152 5151 5150 5148 5147 5146 5145
5151 5152 5152 5153 5153 5154 5154 5154 5154 5153 5153 5152 5152 5151 5151 5150 5150 5150 5150 5150 5150 5149 5150 5150 5150 5150 5150 5150 5150 5150 5151 5151 5152 5151 5150 5150 5149 5148 5146 5144 5143 5142 5141